EDT,Max TemperatureF,Mean TemperatureF,Min TemperatureF,Max Dew PointF,MeanDew PointF,Min DewpointF,Max Humidity, Mean Humidity, Min Humidity, Max Sea Level PressureIn, Mean Sea Level PressureIn, Min Sea Level PressureIn, Max VisibilityMiles, Mean VisibilityMiles, Min VisibilityMiles, Max Wind SpeedMPH, Mean Wind SpeedMPH, Max Gust SpeedMPH,PrecipitationIn, CloudCover, Events, WindDirDegrees
2012-10-1,79,74,68,73,71,66,100,90,79,29.75,29.67,29.62,10,7,0,22,8,31,0.97,8,Fog-Rain,173
2012-10-2,76,70,64,69,63,59,93,79,64,30.00,29.82,29.67,10,10,7,16,6,18,0.00,5,,245
2012-10-3,77,69,60,61,60,57,97,76,54,30.20,30.10,30.00,10,10,10,9,1,13,T,1,,256
2012-10-4,85,73,60,64,59,54,97,66,34,30.26,30.20,30.16,10,10,5,9,2,13,0.00,0,,34
2012-10-5,86,73,59,64,59,55,90,64,37,30.18,30.10,30.00,10,10,9,8,2,12,0.00,0,,126
2012-10-6,87,76,64,67,63,57,93,65,37,30.04,29.99,29.90,10,8,0,10,4,16,0.00,4,Fog,332
2012-10-7,79,69,59,63,56,49,87,69,50,30.07,30.02,29.97,10,10,10,14,6,20,0.00,0,,346
2012-10-8,76,65,54,55,51,45,80,63,46,30.11,30.07,30.02,10,10,10,14,5,17,0.00,1,,16
2012-10-9,75,66,57,56,53,50,87,68,49,30.14,30.09,30.04,10,10,10,12,3,16,0.00,5,,71
2012-10-10,80,68,55,58,56,53,93,68,42,30.18,30.12,30.08,10,9,4,16,4,21,0.00,3,,335
2012-10-11,82,69,56,59,55,53,90,65,39,30.27,30.21,30.16,10,10,10,9,1,12,0.00,0,,36
2012-10-12,87,73,58,63,59,55,84,61,37,30.27,30.21,30.16,10,10,10,17,4,23,0.00,1,,3
2012-10-13,81,73,64,62,58,55,87,66,45,30.30,30.24,30.20,10,10,10,17,6,23,0.00,1,,112
2012-10-14,84,73,62,64,61,57,93,72,51,30.22,30.12,30.01,10,10,10,13,5,15,0.00,1,,147
2012-10-15,83,73,62,66,60,48,93,63,33,30.00,29.94,29.86,10,10,4,17,6,22,0.06,5,Rain-Thunderstorm,288
2012-10-16,76,62,48,51,45,39,86,57,27,30.00,29.94,29.88,10,10,10,12,2,17,0.00,0,,51
2012-10-17,80,67,53,52,50,47,93,63,33,29.96,29.88,29.81,10,10,10,15,3,18,0.00,0,,159
2012-10-18,78,69,60,63,60,52,90,75,60,29.85,29.82,29.78,10,10,9,16,4,20,0.01,4,Rain,188
2012-10-19,77,62,47,52,38,27,83,49,15,29.88,29.84,29.78,10,10,10,20,5,26,0.00,0,,285
2012-10-20,76,61,46,47,43,41,86,58,29,29.99,29.92,29.86,10,10,10,15,4,23,0.00,0,,316
2012-10-21,80,64,47,49,46,42,93,60,26,30.15,30.09,30.00,10,10,10,12,3,16,0.00,0,,34
2012-10-22,82,66,50,54,48,45,83,56,28,30.22,30.15,30.09,10,10,10,12,2,15,0.00,0,,93
2012-10-23,82,67,52,51,48,40,83,53,23,30.18,30.12,30.07,10,10,10,10,2,14,0.00,0,,124
2012-10-24,84,69,54,58,53,48,86,60,34,30.18,30.10,30.04,10,10,10,12,3,16,0.00,0,,95
2012-10-25,84,71,58,62,57,55,93,67,40,30.08,30.02,29.97,10,10,10,15,5,20,0.00,2,,89
2012-10-26,84,74,63,62,59,55,87,64,40,30.02,29.95,29.88,10,10,10,14,5,18,0.00,1,,58
2012-10-27,73,65,56,57,54,47,84,69,53,29.89,29.83,29.76,10,10,10,18,9,23,0.00,2,,338
2012-10-28,59,55,51,47,43,35,77,64,51,29.92,29.84,29.80,10,10,10,22,12,30,0.00,7,,343
2012-10-29,61,53,45,36,29,21,62,43,24,29.95,29.89,29.83,10,10,10,25,15,36,0.00,0,,337
2012-10-30,63,53,43,29,23,15,53,35,16,29.90,29.83,29.77,10,10,10,28,14,44,0.00,0,,309
2012-10-31,71,58,44,44,36,30,65,46,27,29.98,29.92,29.87,10,10,10,22,9,29,0.00,0,,286